Probability
0 0 0 0 0 0 0 0 0 0 0 0 0 0 0 0 0 0 0 0 0 0 0 0 0 0 0 0 0 3 3 3 3 3 3 0 0 0 0 0 0 0 0 0
0 0 0 0 0 0 0 0 0 0 0 0 0 0 0 0 0 0 0 0 0 0 3 3 3 0 0 0 0 0 3 3 3 3 3 3 0 0 0 0 0 0 0 0
0 0 0 0 0 0 0 0 0 0 0 0 0 0 0 0 0 0 0 0 0 0 0 3 3 3 0 0 0 0 3 3 3 3 3 0 0 0 0 0 0 0 0 0
0 0 0 0 0 0 0 0 0 0 0 0 0 0 0 0 0 0 0 0 0 0 0 0 0 0 0 0 3 0 0 3 3 3 3 3 0 0 0 0 0 0 0 0
0 0 0 0 0 0 0 0 0 0 0 0 0 0 0 0 0 0 0 0 0 0 0 0 0 0 0 0 0 3 0 3 3 3 3 3 0 0 0 0 0 0 0 0
0 0 0 0 0 0 0 0 0 0 0 0 0 0 0 0 0 0 0 0 0 0 0 0 0 3 3 0 0 3 3 3 3 3 3 3 0 0 0 0 0 0 0 0
0 0 0 0 0 0 0 0 0 0 0 0 0 0 0 0 0 0 0 0 0 0 0 0 0 0 0 0 0 0 0 0 3 3 3 3 0 0 0 0 0 0 0 0
0 0 0 0 0 0 0 0 0 0 0 0 0 0 0 0 0 0 0 0 0 0 0 0 0 0 0 0 0 0 0 0 3 3 3 3 0 0 0 0 0 0 0 0
0 0 0 0 0 0 0 0 0 0 0 0 0 0 0 0 0 0 0 0 0 0 0 0 0 0 0 0 0 0 0 0 0 3 3 3 0 0 0 0 0 0 0 0
0 0 0 0 0 0 0 0 0 0 0 0 0 0 0 0 0 0 0 0 0 0 0 0 0 0 0 0 0 0 0 0 0 3 3 3 3 0 0 0 0 0 0 0
0 0 0 0 0 0 0 0 0 0 0 0 0 0 0 0 0 0 0 0 0 0 0 0 0 0 0 0 0 0 0 0 0 0 3 3 3 3 0 0 0 0 0 0
0 0 0 0 0 0 0 0 0 0 0 0 0 0 0 0 0 0 0 0 0 0 0 0 0 0 0 0 0 0 0 0 0 0 3 3 3 3 0 0 0 0 0 0
0 0 0 0 0 0 0 0 0 0 0 0 0 0 0 0 0 0 0 0 0 0 0 0 0 0 0 0 0 0 0 0 0 0 0 3 3 3 0 0 0 0 0 0
0 0 0 0 0 0 0 0 0 0 0 0 0 0 0 0 0 0 0 0 0 0 0 0 0 0 0 0 0 0 0 0 0 0 0 0 0 0 0 0 0 0 0 0
0 0 0 0 0 0 0 0 0 0 0 0 0 0 0 0 0 0 0 0 0 0 0 0 0 0 0 0 0 0 0 0 0 0 0 0 0 0 0 0 0 0 3 0
0 0 0 0 0 0 0 0 0 0 0 0 0 0 0 0 0 0 0 0 0 0 0 0 0 0 0 0 0 0 0 0 0 0 0 0 0 0 0 0 0 0 0 0
0 0 0 0 0 0 0 0 0 0 0 0 0 0 0 0 0 0 0 0 0 0 0 0 0 0 0 0 0 0 0 0 0 0 0 0 0 0 0 0 0 0 0 0
0 0 0 0 0 0 0 0 0 0 0 0 0 0 0 0 0 0 0 0 0 0 0 0 0 0 0 0 0 0 0 0 0 0 0 0 0 0 0 0 0 0 0 0
0 0 0 0 0 0 0 0 0 0 0 0 0 0 0 0 0 0 0 0 0 0 0 0 0 0 0 0 0 0 0 0 0 0 0 0 0 0 0 0 0 0 0 0
0 0 0 0 0 0 0 0 0 0 0 0 0 0 0 0 0 0 0 0 0 0 0 0 0 0 0 0 0 0 0 0 0 0 0 0 0 0 0 0 0 0 0 3
0 0 0 0 0 0 0 0 0 0 0 0 0 0 0 0 0 0 0 0 0 0 0 0 0 0 0 0 0 0 0 0 0 0 0 0 0 0 0 0 0 0 0 3
0 0 0 0 0 0 0 0 0 0 0 0 0 0 0 0 0 0 0 0 0 0 0 0 0 0 0 0 0 0 0 0 0 0 0 0 0 0 0 0 0 0 0 0
0 0 0 0 0 0 0 0 0 0 0 0 0 0 0 0 0 0 0 0 0 0 0 0 0 0 0 0 0 0 0 0 0 0 0 0 0 0 0 0 0 0 0 0
0 0 0 0 0 0 0 0 0 0 0 0 0 0 0 0 0 0 0 0 0 0 0 0 0 0 0 0 0 0 3 3 0 0 0 0 0 0 0 0 0 0 0 0
0 0 0 0 0 0 0 0 0 0 0 0 0 0 0 0 0 0 0 0 0 0 0 0 0 0 0 0 0 0 0 0 0 0 0 0 0 0 0 0 0 0 0 0
0 0 0 0 0 0 0 0 0 0 0 0 0 0 0 0 0 0 0 0 0 0 0 0 0 0 0 0 0 0 0 0 0 0 0 0 0 0 0 0 0 0 0 0
Height
5851 5852 5851 5851 5852 5852 5852 5851 5851 5852 5851 5851 5851 5851 5851 5851 5851 5851 5851 5851 5851 5851 5851 5851 5851 5851 5850 5850 5850 5849 5849 5848 5848 5847 5847 5847 5846 5846 5846 5846 5845 5845 5844 5844
5850 5850 5850 5849 5849 5849 5849 5849 5849 5849 5848 5848 5848 5848 5848 5848 5848 5848 5848 5848 5848 5848 5848 5848 5848 5848 5848 5847 5847 5847 5847 5847 5846 5845 5845 5844 5844 5844 5844 5843 5843 5842 5842 5841
5848 5849 5847 5847 5847 5847 5846 5846 5846 5846 5846 5845 5845 5846 5846 5845 5845 5845 5844 5844 5844 5844 5844 5844 5845 5845 5845 5845 5845 5845 5844 5844 5843 5843 5842 5842 5841 5841 5841 5841 5840 5840 5839 5838
5845 5845 5845 5844 5844 5843 5843 5843 5843 5842 5842 5842 5843 5842 5843 5842 5841 5841 5841 5841 5841 5841 5841 5841 5841 5841 5841 5841 5841 5841 5841 5841 5840 5840 5840 5839 5839 5838 5838 5837 5837 5836 5835 5834
5842 5842 5841 5841 5841 5840 5840 5840 5840 5839 5838 5839 5839 5838 5840 5838 5838 5837 5837 5837 5837 5837 5837 5837 5838 5838 5838 5838 5838 5838 5838 5838 5837 5837 5836 5836 5835 5835 5834 5834 5833 5832 5832 5831
5839 5838 5838 5838 5837 5837 5837 5837 5836 5836 5835 5835 5835 5834 5835 5834 5834 5834 5833 5833 5833 5833 5833 5833 5833 5834 5834 5834 5834 5834 5834 5834 5834 5833 5833 5832 5832 5831 5831 5830 5829 5828 5827 5827
5835 5835 5835 5834 5834 5834 5834 5834 5833 5832 5831 5832 5832 5830 5831 5831 5830 5830 5829 5829 5829 5829 5829 5829 5829 5829 5830 5830 5830 5830 5830 5830 5830 5829 5829 5828 5828 5827 5826 5826 5825 5824 5823 5822
5831 5832 5831 5831 5830 5830 5830 5830 5830 5829 5828 5828 5827 5826 5828 5827 5826 5826 5825 5825 5824 5824 5824 5824 5825 5825 5825 5825 5825 5825 5825 5825 5825 5825 5824 5824 5823 5822 5822 5821 5820 5819 5819 5818
5826 5827 5828 5827 5826 5826 5826 5826 5826 5825 5824 5823 5823 5823 5824 5823 5822 5822 5821 5821 5820 5820 5820 5820 5820 5820 5820 5820 5820 5820 5820 5820 5820 5820 5819 5819 5818 5817 5817 5816 5815 5814 5813 5812
5822 5822 5823 5823 5823 5823 5822 5822 5821 5821 5819 5819 5819 5820 5820 5819 5818 5818 5817 5816 5816 5816 5816 5815 5815 5815 5815 5815 5815 5815 5815 5815 5814 5814 5813 5813 5812 5811 5811 5810 5809 5808 5808 5806
5818 5818 5819 5819 5819 5819 5819 5818 5817 5816 5816 5815 5815 5818 5816 5815 5814 5813 5812 5812 5811 5811 5810 5810 5809 5809 5809 5809 5809 5809 5809 5808 5808 5808 5807 5806 5806 5805 5804 5803 5803 5802 5801 5800
5813 5813 5813 5814 5814 5814 5813 5813 5813 5812 5811 5810 5810 5814 5811 5810 5809 5808 5807 5806 5806 5805 5804 5804 5804 5804 5803 5803 5803 5803 5802 5802 5801 5801 5800 5800 5799 5798 5797 5796 5795 5795 5794 5793
5809 5809 5809 5809 5811 5810 5808 5808 5807 5807 5806 5805 5804 5808 5805 5804 5803 5802 5801 5800 5799 5799 5799 5798 5798 5797 5797 5797 5797 5796 5796 5795 5795 5794 5793 5792 5791 5791 5790 5789 5788 5787 5786 5785
5804 5803 5804 5805 5804 5803 5803 5802 5802 5801 5800 5799 5799 5799 5799 5798 5797 5796 5796 5795 5793 5793 5792 5792 5792 5791 5791 5791 5790 5789 5789 5788 5787 5786 5785 5784 5783 5783 5782 5781 5780 5779 5778 5777
5798 5798 5798 5798 5798 5797 5797 5797 5796 5795 5794 5793 5793 5792 5792 5791 5791 5790 5789 5788 5787 5786 5786 5785 5785 5784 5784 5783 5783 5782 5781 5780 5779 5778 5777 5776 5775 5774 5774 5773 5772 5771 5770 5769
5793 5792 5792 5792 5792 5791 5790 5790 5790 5789 5788 5787 5786 5786 5785 5784 5783 5782 5782 5781 5780 5779 5779 5778 5777 5777 5776 5776 5775 5774 5773 5772 5771 5769 5768 5767 5767 5766 5765 5764 5763 5762 5761 5760
5787 5786 5786 5786 5785 5784 5784 5784 5783 5782 5781 5781 5780 5780 5778 5777 5775 5775 5774 5773 5772 5771 5770 5769 5769 5768 5768 5767 5766 5765 5764 5763 5762 5760 5759 5758 5757 5757 5756 5755 5754 5753 5752 5751
5781 5780 5779 5778 5779 5777 5780 5777 5776 5775 5775 5774 5773 5772 5770 5769 5768 5767 5766 5765 5764 5763 5762 5761 5760 5759 5759 5758 5757 5756 5755 5754 5753 5752 5750 5749 5748 5747 5746 5745 5745 5744 5742 5741
5774 5773 5772 5771 5770 5770 5771 5770 5768 5767 5767 5767 5765 5764 5763 5761 5760 5759 5757 5756 5755 5754 5753 5752 5751 5750 5749 5749 5748 5747 5746 5745 5744 5743 5741 5740 5739 5738 5737 5736 5734 5733 5732 5731
5767 5766 5766 5764 5763 5763 5765 5763 5761 5760 5759 5759 5757 5756 5755 5753 5752 5752 5750 5748 5746 5745 5743 5742 5742 5741 5740 5739 5738 5737 5736 5735 5734 5733 5732 5731 5729 5728 5727 5726 5725 5723 5722 5721
5760 5759 5758 5757 5756 5755 5757 5755 5754 5753 5752 5751 5749 5747 5746 5744 5743 5742 5741 5739 5737 5736 5734 5733 5732 5731 5730 5729 5728 5728 5727 5726 5725 5724 5722 5721 5720 5718 5717 5716 5715 5714 5713 5711
5752 5751 5751 5750 5749 5750 5748 5747 5746 5744 5742 5741 5739 5738 5736 5735 5733 5732 5731 5729 5728 5726 5725 5723 5722 5721 5721 5720 5719 5718 5717 5716 5715 5714 5713 5712 5710 5708 5707 5706 5705 5704 5702 5701
5745 5745 5743 5743 5743 5741 5740 5738 5737 5735 5734 5732 5730 5729 5727 5726 5724 5723 5721 5719 5718 5716 5715 5713 5712 5712 5711 5710 5709 5708 5707 5706 5705 5704 5703 5701 5700 5698 5697 5696 5695 5694 5692 5691
5737 5736 5735 5734 5733 5732 5731 5730 5728 5726 5725 5723 5722 5720 5718 5716 5715 5713 5711 5710 5708 5707 5705 5704 5702 5702 5701 5700 5699 5698 5697 5696 5695 5694 5693 5691 5690 5689 5687 5686 5685 5684 5683 5682
5729 5728 5727 5725 5725 5723 5722 5721 5719 5717 5716 5714 5712 5710 5708 5707 5705 5703 5702 5700 5698 5697 5695 5693 5692 5691 5690 5690 5689 5688 5687 5686 5685 5683 5682 5681 5680 5679 5677 5676 5675 5674 5673 5671
5721 5720 5718 5718 5717 5715 5714 5712 5711 5709 5707 5705 5703 5701 5699 5697 5695 5694 5692 5690 5689 5687 5685 5683 5682 5681 5680 5679 5678 5677 5676 5675 5674 5673 5672 5671 5670 5668 5667 5667 5666 5664 5663 5662
Wind_Speed
6 6 6 6 7 7 7 7 7 7 7 8 8 8 8 8 9 9 9 9 9 8 8 8 8 9 9 8 8 8 7 7 7 7 8 8 8 9 9 9 9 9 10 11
6 6 7 7 8 8 9 9 9 8 8 9 9 9 9 9 9 10 9 10 10 9 9 9 9 10 10 10 9 9 9 9 9 8 8 9 9 9 9 9 10 11 11 11
8 7 8 9 9 10 10 9 10 10 10 11 11 10 10 10 10 10 10 10 10 10 10 10 10 11 10 10 10 10 10 10 10 10 10 10 10 10 11 11 11 11 12 12
9 9 9 10 10 10 10 9 9 11 12 12 12 11 11 10 10 10 10 10 10 11 12 12 12 12 11 11 11 11 11 11 11 11 11 11 11 11 12 12 12 13 13 13
10 10 10 10 10 11 10 10 10 11 12 12 12 12 11 11 10 10 11 11 11 11 12 13 13 12 12 12 12 12 12 12 12 12 12 12 12 12 13 13 14 14 14 14
11 11 11 11 11 11 11 11 12 12 12 12 11 11 11 10 10 11 11 11 11 11 12 13 13 13 13 13 13 13 13 13 13 13 13 13 13 14 14 15 15 15 15 15
12 12 12 12 12 12 11 11 12 13 13 12 11 11 11 10 10 10 11 12 11 12 13 13 14 14 14 14 14 14 15 15 15 15 15 14 15 15 16 16 16 16 16 16
13 12 12 12 11 11 11 12 13 14 14 13 12 12 11 11 10 11 11 12 12 12 13 13 14 14 15 15 15 15 16 16 16 16 16 16 16 17 17 17 17 18 18 18
14 13 12 12 11 11 12 13 14 15 15 15 13 12 12 11 11 11 11 12 12 13 13 14 14 15 16 16 16 16 17 18 18 18 18 19 18 19 19 19 19 20 20 20
14 14 13 12 12 13 13 14 15 14 15 15 14 13 12 12 12 13 13 14 14 14 14 15 16 16 17 17 17 18 18 18 19 19 20 20 21 21 21 21 21 21 21 21
14 15 13 13 13 14 14 15 16 17 16 17 17 15 14 14 15 15 15 16 16 16 16 16 16 17 17 19 19 19 20 20 21 20 21 22 22 23 23 23 23 23 23 22
15 15 15 15 15 15 16 16 16 18 18 19 20 18 17 17 18 18 18 18 18 18 18 18 18 18 18 19 20 21 21 22 22 23 23 23 23 24 24 24 24 24 24 24
16 16 17 17 17 17 17 17 18 19 20 21 22 21 20 20 20 20 20 20 20 20 20 20 20 20 20 20 21 22 23 24 24 24 25 25 25 25 25 25 25 26 26 25
17 18 18 18 18 18 18 18 19 20 22 23 22 22 21 21 21 21 21 22 22 22 22 22 22 22 22 22 23 24 24 25 26 26 26 26 26 26 26 26 26 26 27 27
19 19 19 19 19 20 20 19 20 21 23 24 23 23 22 22 22 23 22 22 23 23 23 23 24 24 24 25 25 25 26 26 27 27 27 26 27 27 27 27 27 27 27 27
20 21 20 20 21 22 22 22 22 22 23 23 24 24 24 25 25 25 24 24 24 24 26 26 27 27 27 26 26 26 27 28 28 28 27 27 27 28 28 28 28 28 29 29
21 22 23 23 22 23 23 23 24 24 23 24 24 24 24 26 27 27 26 25 26 26 26 27 28 29 28 27 27 27 28 29 29 28 28 28 29 29 28 29 30 30 30 30
21 22 24 24 24 25 24 24 25 25 24 25 26 26 25 25 26 26 27 28 28 28 28 28 29 29 29 29 29 29 29 30 30 29 29 30 30 30 29 29 30 31 31 31
22 23 23 23 24 24 24 24 24 26 26 26 26 26 26 26 27 27 28 29 30 30 30 30 30 30 31 31 31 31 30 30 30 30 31 31 30 30 30 30 31 31 31 31
23 24 24 24 25 25 24 25 26 27 27 27 27 27 27 27 27 27 28 29 30 31 31 31 31 31 32 32 31 31 30 31 31 31 31 31 31 31 31 31 31 31 31 32
23 24 25 25 25 25 25 25 26 27 27 27 28 28 28 29 29 29 29 30 30 30 30 30 31 31 32 32 32 31 31 32 31 31 31 31 31 31 31 32 32 31 31 31
24 25 25 25 26 25 25 26 26 27 27 27 28 28 29 30 30 30 31 31 31 31 30 30 31 31 32 32 32 32 31 31 31 31 31 31 31 32 32 32 32 31 31 31
25 26 26 25 26 26 26 26 27 27 27 27 28 29 29 29 30 31 31 32 31 31 31 31 32 32 32 32 31 31 31 31 30 31 31 31 31 31 32 31 31 31 30 30
26 26 26 26 26 27 28 28 29 30 29 29 29 30 30 30 30 31 32 31 31 32 33 32 32 32 32 32 32 32 32 31 32 32 31 31 31 31 31 30 31 31 30 30
26 26 26 27 27 28 28 28 29 30 30 30 31 32 31 31 31 31 31 32 32 32 32 32 32 32 32 31 32 32 33 32 32 32 32 32 32 31 31 31 31 32 31 31
26 27 28 28 28 29 28 29 29 30 31 32 32 32 32 32 32 31 31 31 32 32 32 31 31 32 32 32 32 33 33 33 33 32 32 32 32 31 31 31 32 31 32 31
Wind_Direction
250 256 258 257 256 256 258 263 265 265 265 268 271 274 272 271 269 271 274 279 280 280 277 276 277 277 281 285 288 290 291 293 293 293 291 289 287 284 282 280 281 287 287 284
257 259 259 263 264 265 267 267 268 270 270 272 271 272 271 267 270 273 275 276 270 271 275 274 275 275 277 282 285 287 289 289 288 288 289 290 287 283 280 280 284 286 289 288
261 262 265 264 265 268 269 269 267 270 272 275 275 274 275 272 272 276 278 278 268 268 271 275 275 273 274 277 278 280 284 286 285 283 283 284 284 281 279 281 282 285 288 288
262 261 263 265 265 269 273 271 269 269 272 275 276 274 275 275 274 277 278 280 273 273 271 275 275 273 272 273 273 276 278 281 283 283 282 283 285 284 282 281 282 284 287 289
262 264 266 267 269 269 271 269 269 271 272 273 276 277 279 278 277 278 280 279 275 274 271 271 272 273 273 273 274 275 275 276 279 281 283 283 284 284 283 283 283 285 287 289
260 262 266 270 271 270 268 266 268 271 274 275 280 282 279 279 281 278 277 278 276 275 274 272 271 272 274 274 274 274 274 274 276 279 281 281 282 283 283 282 283 284 286 287
260 261 263 267 268 267 264 266 271 272 274 279 279 279 283 281 280 279 280 282 278 273 273 272 272 272 273 273 274 274 273 274 276 278 279 280 281 282 283 281 281 281 282 282
261 261 263 265 267 269 265 268 272 276 276 279 277 278 284 285 279 281 282 282 280 275 274 273 271 271 272 272 273 273 274 273 276 278 279 278 279 281 282 281 279 279 279 279
261 262 261 262 264 265 269 270 272 274 278 276 278 281 279 281 281 282 282 281 281 275 274 275 272 268 270 270 272 273 275 276 277 278 278 278 277 278 280 280 279 279 279 279
260 261 262 261 263 264 268 269 270 273 276 280 283 284 284 280 280 281 283 282 281 280 275 273 272 271 270 269 271 273 275 277 278 277 277 277 277 277 277 277 277 277 277 277
261 261 261 261 262 263 264 266 268 271 274 279 282 284 285 284 283 281 279 282 283 283 280 276 276 275 274 271 271 273 276 278 279 279 278 277 277 276 275 275 274 275 275 275
263 263 261 261 262 264 265 267 269 270 273 276 279 281 282 283 284 283 282 282 280 280 280 279 277 276 274 273 273 275 276 278 279 279 279 278 277 276 275 275 274 274 275 275
264 264 263 263 263 264 266 267 269 270 271 274 278 280 282 284 283 283 283 282 280 280 279 277 277 277 277 276 276 276 276 278 278 279 279 279 278 277 276 275 275 275 274 275
263 265 267 268 269 270 267 267 269 272 272 275 277 279 279 280 281 280 280 279 279 279 278 277 276 278 278 277 276 277 277 278 278 279 279 278 277 277 276 274 273 273 274 274
263 265 267 268 270 272 271 269 269 271 273 276 278 279 280 281 282 281 279 279 279 278 277 277 278 277 276 276 277 276 277 278 278 279 279 277 277 276 275 274 273 273 273 274
265 266 267 267 269 271 272 271 271 271 272 276 279 280 280 282 282 281 281 281 281 277 277 276 278 278 276 276 277 276 277 278 280 279 278 277 277 276 275 274 274 274 274 274
266 268 270 271 270 270 271 272 273 273 273 275 278 280 280 281 281 281 282 283 284 282 279 277 278 277 275 275 278 279 277 278 279 279 277 276 276 276 275 275 275 276 275 274
267 269 271 272 272 272 275 274 273 273 272 275 278 279 280 280 280 280 282 283 283 281 280 280 280 278 276 276 278 279 276 277 277 277 277 276 276 275 275 276 275 275 274 274
270 270 271 273 273 273 272 275 275 274 274 276 279 280 281 281 281 281 282 282 282 282 281 279 279 279 279 279 280 278 276 276 277 276 276 275 275 275 275 276 276 275 274 275
271 271 272 274 276 276 276 276 276 276 275 277 278 279 279 281 282 282 282 282 282 282 280 279 279 280 280 280 279 279 278 277 276 276 277 276 275 276 277 277 276 276 275 275
272 273 273 274 277 279 280 281 279 278 280 281 281 281 279 279 282 283 283 283 282 281 280 279 279 279 279 279 277 278 278 277 275 276 276 277 276 277 277 277 276 276 277 276
274 274 276 277 276 279 280 282 282 282 283 284 283 282 282 282 282 283 283 283 283 282 281 280 280 278 278 278 278 278 278 278 277 277 277 278 278 277 276 276 275 276 277 276
275 276 276 278 279 279 281 281 283 284 284 285 285 284 285 283 283 283 282 282 281 282 282 281 280 278 277 276 278 279 279 279 279 279 278 277 277 278 277 276 275 275 277 276
275 275 276 277 279 281 281 281 283 284 284 285 286 286 287 286 284 285 284 283 281 280 281 281 279 277 276 276 277 279 280 280 281 280 278 278 279 278 277 276 275 275 275 274
276 276 275 276 279 280 281 282 282 282 284 286 286 286 287 287 286 285 285 283 282 282 282 279 278 276 277 276 276 278 279 280 280 279 278 278 278 276 275 276 276 276 276 275
278 278 277 277 278 278 279 281 283 284 285 285 286 287 287 288 287 286 285 285 285 284 282 280 279 278 276 275 275 276 278 278 278 279 278 277 276 275 274 275 277 277 277 277